Miscellaneous Local Product
Issued by NWS Hastings, NE

Home | Current Version | Previous Version | Graphics & Text | Print | Product List | Glossary On
Versions: 1 2 3 4 5 6 7 8 9 10 11 12 13 14 15 16 17 18 19 20 21 22 23 24 25 26 27 28 29 30 31 32 33 34 35 36 37 38 39 40 41 42 43 44 45 46 47 48 49 50
000
AXUS43 KGID 011102
MISGRI

GID CWA HOURLY WEATHER ROUNDUP
NATIONAL WEATHER SERVICE HASTINGS NE
600 AM CDT WED APR 01 2015

NOTE: "FAIR" INDICATES FEW OR NO CLOUDS BELOW 12,000 FEET WITH NO
SIGNIFICANT WEATHER AND/OR OBSTRUCTIONS TO VISIBILITY.

...SOUTH CENTRAL NEBRASKA...

CITY           SKY/WX    TMP DP  RH WIND       PRES   REMARKS
GRAND ISLAND   CLEAR     53  39  59 S15       29.73F
HASTINGS       CLEAR     54  39  57 S13       29.74F
KEARNEY        CLEAR     52  36  54 S12       29.73S
ORD            CLEAR     54  33  45 S13       29.68F
YORK           CLOUDY    54  37  54 S14       29.76F
AURORA         CLEAR     51  36  55 S14G21    29.75F
LEXINGTON      CLEAR     58  37  45 S18G26    29.69F
HOLDREGE       CLEAR     53  37  52 S13G20    29.72F
HEBRON         CLEAR     55  35  47 S14       29.78F

...NEBRASKA PANHANDLE...

CITY           SKY/WX    TMP DP  RH WIND       PRES   REMARKS
CHADRON        PTCLDY    50  27  40 W10       29.53F
ALLIANCE       MOCLDY    51  24  34 S6        29.61F
SCOTTSBLUFF    PTCLDY    44  24  45 NW5       29.63F
SIDNEY         CLEAR     46  25  43 SW10      29.66S

...WESTERN AND NORTH CENTRAL NEBRASKA...

CITY           SKY/WX    TMP DP  RH WIND       PRES   REMARKS
VALENTINE      MOCLDY    58  28  32 SW15      29.57S
AINSWORTH      MOCLDY    56  31  39 S20G25    29.59F
ONEILL         CLEAR     55  34  45 S12       29.65F
BROKEN BOW     CLEAR     58  36  43 SW14      29.68F
IMPERIAL         N/A     56  41  57 S16       29.67F
NORTH PLATTE   CLEAR     55  35  47 S15G22    29.67S
MCCOOK         CLEAR     55  39  54 VRB3      29.70F

...EASTERN NEBRASKA...

CITY           SKY/WX    TMP DP  RH WIND       PRES   REMARKS
NORFOLK        CLEAR     55  35  47 S18G26    29.71F
SO SIOUX CITY  CLEAR     51  32  48 SE10      29.75S
TEKAMAH        CLEAR     49  31  49 S13       29.78S
COLUMBUS       CLEAR     54  32  43 S17G23    29.77S
ALBION         CLEAR     50  34  55 SE10      29.72F
OMAHA EPPLEY   CLEAR     57  33  40 S17       29.80F
OFFUTT AFB     CLEAR     54  33  45 SE13      29.80F
MILLARD        CLEAR     56  34  44 SE7       29.81S
LINCOLN        CLEAR     55  34  45 S16       29.79F
NEBRASKA CITY  FAIR      54  30  40 S16       29.83S
BEATRICE       CLEAR     54  34  47 SE10      29.81F
FALLS CITY     CLEAR     52  33  48 SE14      29.84F

...NORTHERN KANSAS...

CITY           SKY/WX    TMP DP  RH WIND       PRES   REMARKS
GOODLAND       CLEAR     50  44  80 S14       29.73F
HILL CITY      CLEAR     59  41  51 S14       29.75F
NORTON         SUNNY     57  37  47 S13G21    29.72F
PHILLIPSBURG   CLEAR     61  43  51 SE6       29.76S
SMITH CENTER   CLEAR     48  39  71 SE12      29.77F
BELOIT         CLEAR     52  39  62 SE9       29.78F
HAYS           CLEAR     57  41  54 S14G20    29.79S
RUSSELL        CLEAR     58  45  62 S14       29.77S
CONCORDIA      CLEAR     56  41  57 S17       29.79F
SALINA         CLEAR     57  46  66 SE12      29.81F
TOPEKA         MOCLDY    50  36  58 E8        29.86F



USA.gov is the U.S. government's official web portal to all federal, state and local government web resources and services.